| time (UTC) | temp C | wind direction | speed KPH | gust KPH | rain 1hr cm | rain 24hr cm | rain mn cm | humidity % | barometer mb |
| 20260906114016 | 23 | 207 | 0.0 | 3.2 | 0.00 | 0.15 | 0.15 | 94 | 1013.5 |
| 20260906113514 | 23 | 202 | 0.0 | 1.6 | 0.00 | 0.15 | 0.15 | 94 | 1013.3 |
| 20260906113010 | 24 | 131 | 1.6 | 3.2 | 0.00 | 0.15 | 0.15 | 94 | 1013.4 |
| 20260906112504 | 23 | 214 | 1.6 | 4.8 | 0.00 | 0.15 | 0.15 | 94 | 1013.4 |
| 20260906112001 | 24 | 220 | 3.2 | 4.8 | 0.00 | 0.15 | 0.15 | 94 | 1013.3 |
| 20260906111500 | 23 | 166 | 0.0 | 6.4 | 0.00 | 0.15 | 0.15 | 94 | 1013.4 |
| 20260906110955 | 23 | 145 | 4.8 | 4.8 | 0.00 | 0.15 | 0.15 | 95 | 1013.4 |
| 20260906110450 | 23 | 115 | 0.0 | 6.4 | 0.00 | 0.15 | 0.15 | 97 | 1013.3 |
| 20260906105949 | 23 | 154 | 3.2 | 4.8 | 0.00 | 0.15 | 0.15 | 97 | 1013.2 |
| 20260906105445 | 23 | 89 | 0.0 | 3.2 | 0.00 | 0.15 | 0.15 | 97 | 1013.1 |
| 20260906104941 | 24 | 242 | 0.0 | 1.6 | 0.00 | 0.15 | 0.15 | 97 | 1012.7 |
| 20260906104439 | 23 | 269 | 0.0 | 1.6 | 0.00 | 0.15 | 0.15 | 97 | 1012.7 |
| 20260906103939 | 24 | 147 | 0.0 | 3.2 | 0.00 | 0.15 | 0.15 | 97 | 1012.5 |
| 20260906103437 | 23 | 208 | 0.0 | 3.2 | 0.00 | 0.15 | 0.15 | 98 | 1012.6 |
| 20260906102932 | 23 | 79 | 0.0 | 1.6 | 0.00 | 0.15 | 0.15 | 98 | 1012.6 |
| 20260906102432 | 23 | 179 | 0.0 | 3.2 | 0.00 | 0.15 | 0.15 | 98 | 1012.7 |
| 20260906101927 | 23 | 223 | 1.6 | 3.2 | 0.00 | 0.15 | 0.15 | 98 | 1012.8 |
| 20260906101422 | 23 | 150 | 0.0 | 1.6 | 0.00 | 0.15 | 0.15 | 98 | 1012.7 |
| 20260906100918 | 23 | 162 | 1.6 | 1.6 | 0.00 | 0.15 | 0.15 | 97 | 1012.6 |
| 20260906100417 | 23 | 102 | 0.0 | 1.6 | 0.00 | 0.15 | 0.15 | 97 | 1012.7 |
| 20260906095912 | 24 | 143 | 0.0 | 1.6 | 0.00 | 0.15 | 0.15 | 97 | 1012.8 |
| 20260906095408 | 24 | 121 | 1.6 | 1.6 | 0.00 | 0.15 | 0.15 | 96 | 1012.7 |
| 20260906094908 | 24 | 143 | 0.0 | 3.2 | 0.00 | 0.15 | 0.15 | 96 | 1012.5 |
| 20260906094403 | 24 | 105 | 0.0 | 1.6 | 0.00 | 0.15 | 0.15 | 97 | 1012.5 |
| 20260906093859 | 24 | 164 | 0.0 | 3.2 | 0.00 | 0.15 | 0.15 | 96 | 1012.5 |
| 20260906093354 | 24 | 1 | 1.6 | 1.6 | 0.00 | 0.15 | 0.15 | 96 | 1012.4 |
| 20260906092848 | 24 | 5 | 0.0 | 1.6 | 0.00 | 0.15 | 0.15 | 96 | 1012.5 |
| 20260906092343 | 24 | 358 | 0.0 | 1.6 | 0.00 | 0.15 | 0.15 | 96 | 1012.3 |
| 20260906091839 | 24 | 242 | 0.0 | 0.0 | 0.00 | 0.15 | 0.15 | 96 | 1012.4 |
| 20260906091335 | 25 | 195 | 0.0 | 1.6 | 0.00 | 0.15 | 0.15 | 96 | 1012.5 |
| 20260906090826 | 25 | 341 | 0.0 | 0.0 | 0.00 | 0.15 | 0.15 | 95 | 1012.5 |
| 20260906090325 | 25 | 154 | 0.0 | 0.0 | 0.00 | 0.15 | 0.15 | 94 | 1012.5 |
| 20260906085824 | 25 | 164 | 0.0 | 0.0 | 0.00 | 0.15 | 0.15 | 94 | 1012.4 |
| 20260906085323 | 25 | 89 | 0.0 | 0.0 | 0.00 | 0.15 | 0.15 | 93 | 1012.8 |
| 20260906084818 | 25 | 124 | 0.0 | 1.6 | 0.00 | 0.15 | 0.15 | 94 | 1012.5 |
| 20260906084318 | 24 | 193 | 0.0 | 3.2 | 0.00 | 0.15 | 0.15 | 97 | 1012.7 |
| 20260906083813 | 24 | 113 | 0.0 | 0.0 | 0.00 | 0.15 | 0.15 | 97 | 1012.3 |
| 20260906083308 | 24 | 103 | 0.0 | 0.0 | 0.00 | 0.15 | 0.15 | 97 | 1012.3 |
| 20260906082803 | 24 | 37 | 0.0 | 0.0 | 0.00 | 0.15 | 0.15 | 97 | 1012.2 |
| 20260906082258 | 24 | 49 | 0.0 | 1.6 | 0.00 | 0.15 | 0.15 | 97 | 1012.2 |
| 20260906081754 | 24 | 129 | 0.0 | 0.0 | 0.00 | 0.15 | 0.15 | 97 | 1012.3 |
| 20260906081249 | 24 | 129 | 0.0 | 0.0 | 0.00 | 0.15 | 0.15 | 97 | 1012.2 |
| 20260906080745 | 24 | 343 | 0.0 | 0.0 | 0.00 | 0.15 | 0.15 | 96 | 1012.3 |
| 20260906080242 | 24 | 19 | 0.0 | 0.0 | 0.00 | 0.15 | 0.15 | 96 | 1012.1 |
| 20260906075741 | 24 | 89 | 0.0 | 3.2 | 0.00 | 0.15 | 0.15 | 96 | 1011.9 |
| 20260906075236 | 24 | 297 | 0.0 | 0.0 | 0.00 | 0.15 | 0.15 | 95 | 1011.8 |
| 20260906074731 | 24 | 297 | 0.0 | 0.0 | 0.05 | 0.15 | 0.15 | 94 | 1011.8 |
| 20260906074230 | 24 | 255 | 0.0 | 0.0 | 0.05 | 0.15 | 0.15 | 93 | 1012.0 |
| 20260906073730 | 25 | 180 | 0.0 | 0.0 | 0.00 | 0.13 | 0.13 | 92 | 1012.0 |
| 20260906073226 | 25 | 229 | 0.0 | 0.0 | 0.00 | 0.13 | 0.13 | 90 | 1011.9 |
| 20260906072721 | 25 | 6 | 0.0 | 1.6 | 0.05 | 0.13 | 0.13 | 88 | 1011.9 |
| 20260906072217 | 26 | 359 | 1.6 | 3.2 | 0.48 | 0.13 | 0.13 | 85 | 1011.8 |
| 20260906071713 | 26 | 324 | 3.2 | 3.2 | 0.53 | 0.10 | 0.10 | 81 | 1011.9 |
| 20260906071212 | 26 | 225 | 0.0 | 3.2 | 0.30 | 0.05 | 0.05 | 86 | 1012.0 |
| 20260906070709 | 26 | 269 | 0.0 | 4.8 | 0.13 | 0.03 | 0.03 | 90 | 1012.1 |
| 20260906070204 | 26 | 344 | 1.6 | 1.6 | 0.00 | 0.00 | 0.00 | 90 | 1012.2 |
| 20260906065703 | 26 | 343 | 0.0 | 0.0 | 0.00 | 0.00 | 0.00 | 91 | 1012.3 |
| 20260906065159 | 26 | 284 | 0.0 | 0.0 | 0.00 | 0.00 | 0.00 | 91 | 1012.2 |
| 20260906064654 | 26 | 312 | 0.0 | 0.0 | 0.00 | 0.00 | 0.00 | 91 | 1012.2 |
| 20260906064149 | 26 | 333 | 0.0 | 1.6 | 0.00 | 0.00 | 0.00 | 91 | 1012.2 |
| 20260906063644 | 26 | 329 | 0.0 | 0.0 | 0.00 | 0.00 | 0.00 | 92 | 1012.2 |
| 20260906063140 | 26 | 217 | 0.0 | 0.0 | 0.00 | 0.00 | 0.00 | 92 | 1012.3 |
| 20260906062637 | 26 | 242 | 0.0 | 0.0 | 0.00 | 0.00 | 0.00 | 92 | 1012.4 |
| 20260906062135 | 26 | 230 | 0.0 | 0.0 | 0.00 | 0.00 | 0.00 | 91 | 1012.5 |
| 20260906061632 | 26 | 293 | 0.0 | 0.0 | 0.00 | 0.00 | 0.00 | 91 | 1012.3 |
| 20260906061131 | 26 | 322 | 0.0 | 0.0 | 0.00 | 0.00 | 0.00 | 90 | 1012.3 |
| 20260906060628 | 26 | 305 | 0.0 | 0.0 | 0.00 | 0.00 | 0.00 | 89 | 1012.4 |
| 20260906060125 | 26 | 329 | 0.0 | 0.0 | 0.00 | 0.00 | 0.00 | 89 | 1012.5 |
| 20260906055620 | 26 | 258 | 0.0 | 1.6 | 0.00 | 0.00 | 0.00 | 88 | 1012.5 |
| 20260906055115 | 26 | 283 | 0.0 | 0.0 | 0.00 | 0.00 | 0.00 | 88 | 1012.5 |
| 20260906054610 | 26 | 352 | 0.0 | 1.6 | 0.00 | 0.00 | 0.00 | 88 | 1012.4 |
| 20260906054105 | 26 | 333 | 0.0 | 3.2 | 0.00 | 0.00 | 0.00 | 88 | 1012.5 |
| 20260906053602 | 26 | 333 | 0.0 | 1.6 | 0.00 | 0.00 | 0.00 | 88 | 1012.6 |
| 20260906053057 | 26 | 333 | 0.0 | 0.0 | 0.00 | 0.00 | 0.00 | 87 | 1012.5 |
| 20260906052552 | 26 | 0 | 0.0 | 0.0 | 0.00 | 0.00 | 0.00 | 86 | 1012.4 |
| 20260906052049 | 26 | 246 | 0.0 | 0.0 | 0.00 | 0.00 | 0.00 | 86 | 1012.5 |
| 20260906051544 | 26 | 306 | 0.0 | 0.0 | 0.00 | 0.00 | 0.00 | 86 | 1012.6 |
| 20260906051040 | 26 | 332 | 3.2 | 3.2 | 0.00 | 0.00 | 0.00 | 87 | 1012.6 |
| 20260906050535 | 26 | 302 | 0.0 | 0.0 | 0.00 | 0.00 | 0.00 | 87 | 1012.5 |
| 20260906050030 | 26 | 297 | 0.0 | 0.0 | 0.00 | 0.00 | 0.00 | 87 | 1012.5 |
| 20260906045528 | 26 | 333 | 0.0 | 0.0 | 0.00 | 0.00 | 0.00 | 87 | 1012.9 |
| 20260906045024 | 26 | 322 | 0.0 | 0.0 | 0.00 | 0.00 | 0.00 | 87 | 1012.8 |
| 20260906044519 | 26 | 330 | 0.0 | 0.0 | 0.00 | 0.00 | 0.00 | 86 | 1012.8 |
| 20260906044015 | 26 | 297 | 0.0 | 0.0 | 0.00 | 0.00 | 0.00 | 87 | 1012.6 |
| 20260906043510 | 26 | 297 | 0.0 | 1.6 | 0.00 | 0.00 | 0.00 | 86 | 1012.7 |
| 20260906043007 | 26 | 205 | 0.0 | 0.0 | 0.00 | 0.00 | 0.00 | 87 | 1012.8 |
| 20260906042505 | 26 | 205 | 0.0 | 0.0 | 0.00 | 0.00 | 0.00 | 87 | 1012.8 |
| 20260906042005 | 26 | 205 | 0.0 | 0.0 | 0.00 | 0.00 | 0.00 | 87 | 1012.6 |
| 20260906041501 | 26 | 205 | 0.0 | 0.0 | 0.00 | 0.00 | 0.00 | 87 | 1012.7 |
| 20260906041001 | 27 | 205 | 0.0 | 0.0 | 0.00 | 0.00 | 0.00 | 87 | 1012.7 |
| 20260906040456 | 27 | 230 | 0.0 | 0.0 | 0.00 | 0.00 | 0.00 | 85 | 1012.7 |
| 20260906035951 | 27 | 293 | 0.0 | 0.0 | 0.00 | 0.00 | 0.00 | 84 | 1012.6 |
| 20260906035446 | 27 | 293 | 0.0 | 0.0 | 0.00 | 0.00 | 0.00 | 83 | 1012.7 |
| 20260906034942 | 27 | 297 | 0.0 | 0.0 | 0.00 | 0.00 | 0.00 | 84 | 1012.6 |
| 20260906034436 | 27 | 217 | 0.0 | 0.0 | 0.00 | 0.00 | 0.00 | 85 | 1012.6 |
| 20260906033927 | 27 | 217 | 0.0 | 0.0 | 0.00 | 0.00 | 0.00 | 84 | 1012.7 |
| 20260906033426 | 27 | 322 | 0.0 | 1.6 | 0.00 | 0.00 | 0.00 | 84 | 1012.7 |
| 20260906032922 | 27 | 224 | 0.0 | 0.0 | 0.00 | 0.00 | 0.00 | 86 | 1012.5 |
| 20260906032418 | 27 | 227 | 0.0 | 1.6 | 0.00 | 0.00 | 0.00 | 86 | 1012.5 |
| 20260906031912 | 27 | 214 | 0.0 | 1.6 | 0.00 | 0.00 | 0.00 | 86 | 1012.4 |
| 20260906031408 | 27 | 217 | 0.0 | 0.0 | 0.00 | 0.00 | 0.00 | 85 | 1012.6 |
| 20260906030858 | 27 | 217 | 0.0 | 0.0 | 0.00 | 0.00 | 0.00 | 85 | 1012.5 |
| 20260906030352 | 27 | 217 | 0.0 | 0.0 | 0.00 | 0.00 | 0.00 | 85 | 1012.4 |
| 20260906025847 | 27 | 197 | 0.0 | 1.6 | 0.00 | 0.00 | 0.00 | 84 | 1012.5 |
| 20260906025341 | 27 | 195 | 0.0 | 0.0 | 0.00 | 0.00 | 0.00 | 83 | 1012.3 |
| 20260906024840 | 27 | 229 | 0.0 | 1.6 | 0.00 | 0.00 | 0.00 | 83 | 1012.1 |
| 20260906024339 | 27 | 205 | 0.0 | 0.0 | 0.00 | 0.00 | 0.00 | 82 | 1012.1 |
| 20260906023835 | 27 | 224 | 0.0 | 0.0 | 0.00 | 0.00 | 0.00 | 81 | 1012.1 |
| 20260906023331 | 28 | 225 | 0.0 | 1.6 | 0.00 | 0.00 | 0.00 | 81 | 1012.1 |
| 20260906022826 | 28 | 235 | 0.0 | 1.6 | 0.00 | 0.00 | 0.00 | 81 | 1012.2 |
| 20260906022321 | 27 | 194 | 0.0 | 1.6 | 0.00 | 0.00 | 0.00 | 83 | 1012.1 |
| 20260906021817 | 27 | 252 | 0.0 | 1.6 | 0.00 | 0.00 | 0.00 | 84 | 1012.1 |
| 20260906021315 | 27 | 202 | 0.0 | 0.0 | 0.00 | 0.00 | 0.00 | 83 | 1012.0 |
| 20260906020810 | 27 | 212 | 0.0 | 0.0 | 0.00 | 0.00 | 0.00 | 83 | 1012.0 |
| 20260906020309 | 27 | 205 | 0.0 | 0.0 | 0.00 | 0.00 | 0.00 | 82 | 1012.0 |
| 20260906015804 | 28 | 205 | 0.0 | 0.0 | 0.00 | 0.00 | 0.00 | 82 | 1012.0 |
| 20260906015305 | 28 | 202 | 0.0 | 0.0 | 0.00 | 0.00 | 0.00 | 82 | 1012.1 |
| 20260906014802 | 28 | 202 | 0.0 | 0.0 | 0.00 | 0.00 | 0.00 | 81 | 1012.0 |
| 20260906014258 | 28 | 202 | 0.0 | 0.0 | 0.00 | 0.00 | 0.00 | 81 | 1012.1 |
| 20260906013755 | 28 | 202 | 0.0 | 0.0 | 0.00 | 0.00 | 0.00 | 81 | 1011.9 |
| 20260906013255 | 28 | 202 | 0.0 | 0.0 | 0.00 | 0.00 | 0.00 | 80 | 1011.8 |
| 20260906012750 | 28 | 202 | 0.0 | 0.0 | 0.00 | 0.00 | 0.00 | 79 | 1011.8 |
| 20260906012245 | 28 | 202 | 0.0 | 0.0 | 0.00 | 0.00 | 0.00 | 79 | 1011.7 |
| 20260906011740 | 28 | 202 | 0.0 | 0.0 | 0.00 | 0.00 | 0.00 | 78 | 1011.8 |
| 20260906011239 | 28 | 202 | 0.0 | 0.0 | 0.00 | 0.00 | 0.00 | 78 | 1011.7 |
| 20260906010735 | 28 | 202 | 0.0 | 0.0 | 0.00 | 0.00 | 0.00 | 78 | 1011.5 |
| 20260906010232 | 29 | 202 | 0.0 | 0.0 | 0.00 | 0.00 | 0.00 | 77 | 1011.5 |
| 20260906005727 | 29 | 202 | 0.0 | 0.0 | 0.00 | 0.00 | 0.00 | 76 | 1011.6 |
| 20260906005226 | 29 | 202 | 0.0 | 0.0 | 0.00 | 0.00 | 0.00 | 76 | 1011.5 |
| 20260906004725 | 29 | 202 | 0.0 | 0.0 | 0.00 | 0.00 | 0.00 | 75 | 1011.5 |
| 20260906004220 | 30 | 202 | 0.0 | 0.0 | 0.00 | 0.00 | 0.00 | 74 | 1011.4 |
| 20260906003715 | 30 | 202 | 0.0 | 0.0 | 0.00 | 0.00 | 0.00 | 73 | 1011.5 |
| 20260906003211 | 30 | 195 | 0.0 | 0.0 | 0.00 | 0.00 | 0.00 | 72 | 1011.5 |
| 20260906002706 | 30 | 242 | 0.0 | 0.0 | 0.00 | 0.00 | 0.00 | 70 | 1011.6 |
| 20260906002201 | 31 | 284 | 0.0 | 0.0 | 0.00 | 0.00 | 0.00 | 68 | 1011.6 |
| 20260906001655 | 31 | 309 | 0.0 | 0.0 | 0.00 | 0.00 | 0.00 | 67 | 1011.6 |
| 20260906001155 | 31 | 297 | 0.0 | 0.0 | 0.00 | 0.00 | 0.00 | 66 | 1011.6 |
| 20260906000651 | 31 | 284 | 0.0 | 0.0 | 0.00 | 0.00 | 0.00 | 66 | 1011.6 |
| 20260906000146 | 32 | 269 | 0.0 | 0.0 | 0.00 | 0.00 | 0.00 | 66 | 1011.8 |
| 20260905235645 | 32 | 269 | 0.0 | 0.0 | 0.00 | 0.00 | 0.00 | 64 | 1011.6 |
| 20260905235140 | 32 | 269 | 0.0 | 1.6 | 0.00 | 0.00 | 0.00 | 65 | 1011.8 |
| 20260905234635 | 32 | 290 | 0.0 | 0.0 | 0.00 | 0.00 | 0.00 | 64 | 1011.6 |
| 20260905234132 | 32 | 269 | 0.0 | 0.0 | 0.00 | 0.00 | 0.00 | 62 | 1011.7 |
| 20260905233631 | 32 | 269 | 0.0 | 0.0 | 0.00 | 0.00 | 0.00 | 63 | 1011.8 |
| 20260905233125 | 33 | 269 | 0.0 | 1.6 | 0.00 | 0.00 | 0.00 | 62 | 1011.7 |
| 20260905232621 | 33 | 293 | 0.0 | 0.0 | 0.00 | 0.00 | 0.00 | 59 | 1011.7 |
| 20260905232117 | 34 | 62 | 0.0 | 0.0 | 0.00 | 0.00 | 0.00 | 58 | 1011.5 |
| 20260905231617 | 34 | 62 | 0.0 | 0.0 | 0.00 | 0.00 | 0.00 | 55 | 1011.7 |
| 20260905231113 | 35 | 217 | 0.0 | 1.6 | 0.00 | 0.00 | 0.00 | 55 | 1011.6 |
| 20260905230609 | 35 | 164 | 0.0 | 0.0 | 0.00 | 0.00 | 0.00 | 52 | 1011.7 |
| 20260905230107 | 35 | 181 | 1.6 | 1.6 | 0.00 | 0.00 | 0.00 | 51 | 1011.7 |
| 20260905225606 | 35 | 345 | 0.0 | 3.2 | 0.00 | 0.00 | 0.00 | 52 | 1011.7 |
| 20260905225102 | 35 | 192 | 1.6 | 1.6 | 0.00 | 0.00 | 0.00 | 51 | 1011.6 |
| 20260905224601 | 35 | 180 | 0.0 | 0.0 | 0.00 | 0.00 | 0.00 | 51 | 1011.6 |
| 20260905224101 | 35 | 129 | 0.0 | 1.6 | 0.00 | 0.00 | 0.00 | 51 | 1011.8 |
| 20260905223558 | 35 | 228 | 0.0 | 1.6 | 0.00 | 0.00 | 0.00 | 50 | 1011.5 |
| 20260905223054 | 36 | 353 | 0.0 | 1.6 | 0.00 | 0.00 | 0.00 | 51 | 1011.5 |
| 20260905222554 | 36 | 284 | 0.0 | 3.2 | 0.00 | 0.00 | 0.00 | 51 | 1011.6 |
| 20260905222049 | 36 | 49 | 0.0 | 3.2 | 0.00 | 0.00 | 0.00 | 50 | 1011.6 |
| 20260905221545 | 36 | 322 | 0.0 | 1.6 | 0.00 | 0.00 | 0.00 | 50 | 1011.7 |
| 20260905221041 | 36 | 295 | 0.0 | 1.6 | 0.00 | 0.00 | 0.00 | 49 | 1011.5 |
| 20260905220537 | 37 | 9 | 0.0 | 3.2 | 0.00 | 0.00 | 0.00 | 48 | 1011.6 |
| 20260905220033 | 38 | 212 | 0.0 | 1.6 | 0.00 | 0.00 | 0.00 | 48 | 1011.8 |
| 20260905215532 | 36 | 233 | 0.0 | 0.0 | 0.00 | 0.00 | 0.00 | 54 | 1011.8 |
| 20260905215028 | 36 | 246 | 1.6 | 3.2 | 0.00 | 0.00 | 0.00 | 57 | 1011.8 |
| 20260905214524 | 35 | 219 | 0.0 | 0.0 | 0.00 | 0.00 | 0.00 | 51 | 1012.0 |
| 20260905214019 | 35 | 202 | 0.0 | 1.6 | 0.00 | 0.00 | 0.00 | 56 | 1012.0 |
| 20260905213514 | 35 | 269 | 0.0 | 0.0 | 0.00 | 0.00 | 0.00 | 51 | 1012.0 |
| 20260905213010 | 35 | 297 | 0.0 | 1.6 | 0.00 | 0.00 | 0.00 | 54 | 1012.0 |
| 20260905212459 | 36 | 333 | 0.0 | 0.0 | 0.00 | 0.00 | 0.00 | 53 | 1011.9 |
| 20260905211958 | 36 | 269 | 0.0 | 0.0 | 0.00 | 0.00 | 0.00 | 50 | 1011.9 |
| 20260905211454 | 36 | 315 | 0.0 | 3.2 | 0.00 | 0.00 | 0.00 | 51 | 1011.8 |
| 20260905210949 | 37 | 239 | 0.0 | 1.6 | 0.00 | 0.00 | 0.00 | 48 | 1011.7 |
| 20260905210445 | 37 | 323 | 0.0 | 4.8 | 0.00 | 0.00 | 0.00 | 47 | 1011.8 |
| 20260905205944 | 40 | 248 | 0.0 | 3.2 | 0.00 | 0.00 | 0.00 | 45 | 1011.9 |
| 20260905205439 | 39 | 291 | 1.6 | 3.2 | 0.00 | 0.00 | 0.00 | 44 | 1012.1 |
| 20260905204938 | 39 | 227 | 0.0 | 3.2 | 0.00 | 0.00 | 0.00 | 42 | 1012.0 |
| 20260905204434 | 39 | 20 | 0.0 | 3.2 | 0.00 | 0.00 | 0.00 | 42 | 1011.9 |
| 20260905203932 | 38 | 262 | 1.6 | 3.2 | 0.00 | 0.00 | 0.00 | 43 | 1012.2 |
| 20260905203429 | 38 | 325 | 3.2 | 3.2 | 0.00 | 0.00 | 0.00 | 44 | 1012.2 |
| 20260905202924 | 37 | 238 | 0.0 | 4.8 | 0.00 | 0.00 | 0.00 | 45 | 1012.0 |
| 20260905202419 | 38 | 289 | 3.2 | 6.4 | 0.00 | 0.00 | 0.00 | 44 | 1012.3 |
| 20260905201915 | 38 | 246 | 0.0 | 4.8 | 0.00 | 0.00 | 0.00 | 45 | 1012.4 |
| 20260905201409 | 38 | 297 | 3.2 | 4.8 | 0.00 | 0.00 | 0.00 | 43 | 1012.5 |
| 20260905200904 | 38 | 241 | 3.2 | 4.8 | 0.00 | 0.00 | 0.00 | 46 | 1012.5 |
| 20260905200400 | 37 | 219 | 1.6 | 3.2 | 0.00 | 0.00 | 0.00 | 46 | 1012.7 |
| 20260905195857 | 37 | 249 | 0.0 | 8.0 | 0.00 | 0.00 | 0.00 | 47 | 1012.6 |
| 20260905195353 | 37 | 239 | 3.2 | 4.8 | 0.00 | 0.00 | 0.00 | 46 | 1012.7 |
| 20260905194848 | 38 | 154 | 0.0 | 4.8 | 0.00 | 0.00 | 0.00 | 48 | 1012.8 |
| 20260905194347 | 38 | 222 | 3.2 | 6.4 | 0.00 | 0.00 | 0.00 | 46 | 1012.8 |
| 20260905193842 | 38 | 101 | 1.6 | 3.2 | 0.00 | 0.00 | 0.00 | 45 | 1012.7 |
| 20260905193337 | 38 | 225 | 0.0 | 6.4 | 0.00 | 0.00 | 0.00 | 44 | 1012.9 |
| 20260905192833 | 38 | 348 | 1.6 | 4.8 | 0.00 | 0.00 | 0.00 | 46 | 1013.0 |
| 20260905192328 | 38 | 341 | 3.2 | 8.0 | 0.00 | 0.00 | 0.00 | 47 | 1013.4 |
| 20260905191827 | 38 | 283 | 3.2 | 3.2 | 0.00 | 0.00 | 0.00 | 42 | 1013.2 |
| 20260905191326 | 38 | 217 | 0.0 | 6.4 | 0.00 | 0.00 | 0.00 | 46 | 1013.2 |
| 20260905190824 | 38 | 284 | 0.0 | 4.8 | 0.00 | 0.00 | 0.00 | 45 | 1013.6 |
| 20260905190319 | 37 | 329 | 3.2 | 3.2 | 0.00 | 0.00 | 0.00 | 44 | 1013.5 |
| 20260905185818 | 38 | 35 | 3.2 | 4.8 | 0.00 | 0.00 | 0.00 | 45 | 1013.7 |
| 20260905185313 | 37 | 317 | 4.8 | 6.4 | 0.00 | 0.00 | 0.00 | 48 | 1013.6 |
| 20260905184807 | 37 | 297 | 1.6 | 3.2 | 0.00 | 0.00 | 0.00 | 45 | 1013.7 |
| 20260905184305 | 37 | 312 | 3.2 | 8.0 | 0.00 | 0.00 | 0.00 | 46 | 1013.7 |
| 20260905183759 | 36 | 273 | 0.0 | 3.2 | 0.00 | 0.00 | 0.00 | 49 | 1013.6 |
| 20260905183255 | 37 | 310 | 4.8 | 6.4 | 0.00 | 0.00 | 0.00 | 47 | 1013.9 |
| 20260905182754 | 37 | 352 | 0.0 | 3.2 | 0.00 | 0.00 | 0.00 | 46 | 1013.8 |
| 20260905182253 | 38 | 224 | 0.0 | 4.8 | 0.00 | 0.00 | 0.00 | 48 | 1013.9 |
| 20260905181749 | 37 | 267 | 1.6 | 4.8 | 0.00 | 0.00 | 0.00 | 47 | 1013.8 |
| 20260905181243 | 37 | 309 | 3.2 | 4.8 | 0.00 | 0.00 | 0.00 | 45 | 1013.9 |
| 20260905180737 | 36 | 205 | 1.6 | 4.8 | 0.00 | 0.00 | 0.00 | 47 | 1013.8 |
| 20260905180232 | 36 | 325 | 4.8 | 4.8 | 0.00 | 0.00 | 0.00 | 47 | 1014.1 |
| 20260905175733 | 35 | 345 | 0.0 | 3.2 | 0.00 | 0.00 | 0.00 | 48 | 1013.9 |
| 20260905175233 | 35 | 351 | 0.0 | 3.2 | 0.00 | 0.00 | 0.00 | 51 | 1014.1 |
| 20260905174722 | 35 | 217 | 1.6 | 3.2 | 0.00 | 0.00 | 0.00 | 54 | 1014.2 |
| 20260905174218 | 36 | 224 | 1.6 | 3.2 | 0.00 | 0.00 | 0.00 | 54 | 1014.1 |
| 20260905173714 | 36 | 232 | 0.0 | 3.2 | 0.00 | 0.00 | 0.00 | 56 | 1014.1 |
| 20260905173209 | 36 | 224 | 0.0 | 3.2 | 0.00 | 0.00 | 0.00 | 55 | 1014.1 |
| 20260905172709 | 36 | 219 | 3.2 | 4.8 | 0.00 | 0.00 | 0.00 | 54 | 1014.1 |
| 20260905172203 | 36 | 322 | 1.6 | 4.8 | 0.00 | 0.00 | 0.00 | 54 | 1014.3 |
| 20260905171659 | 36 | 243 | 0.0 | 8.0 | 0.00 | 0.00 | 0.00 | 53 | 1014.2 |
| 20260905171155 | 36 | 203 | 4.8 | 6.4 | 0.00 | 0.00 | 0.00 | 53 | 1014.3 |
| 20260905170653 | 36 | 205 | 3.2 | 4.8 | 0.00 | 0.00 | 0.00 | 54 | 1014.2 |
| 20260905170152 | 35 | 217 | 11.3 | 11.3 | 0.00 | 0.00 | 0.00 | 54 | 1014.6 |
| 20260905165651 | 35 | 302 | 1.6 | 4.8 | 0.00 | 0.00 | 0.00 | 52 | 1014.5 |
| 20260905165147 | 36 | 217 | 3.2 | 6.4 | 0.00 | 0.00 | 0.00 | 52 | 1014.6 |
| 20260905164642 | 36 | 210 | 6.4 | 8.0 | 0.00 | 0.00 | 0.00 | 54 | 1014.7 |
| 20260905164141 | 36 | 190 | 3.2 | 3.2 | 0.00 | 0.00 | 0.00 | 53 | 1014.6 |
| 20260905163637 | 35 | 234 | 3.2 | 6.4 | 0.00 | 0.00 | 0.00 | 55 | 1014.7 |
| 20260905163134 | 35 | 172 | 1.6 | 3.2 | 0.00 | 0.00 | 0.00 | 56 | 1014.7 |
| 20260905162630 | 35 | 186 | 1.6 | 4.8 | 0.00 | 0.00 | 0.00 | 57 | 1015.0 |
| 20260905162129 | 35 | 168 | 3.2 | 4.8 | 0.00 | 0.00 | 0.00 | 55 | 1014.9 |
| 20260905161628 | 36 | 210 | 3.2 | 6.4 | 0.00 | 0.00 | 0.00 | 55 | 1014.7 |
| 20260905161126 | 35 | 164 | 1.6 | 6.4 | 0.00 | 0.00 | 0.00 | 55 | 1014.9 |
| 20260905160621 | 36 | 175 | 1.6 | 4.8 | 0.00 | 0.00 | 0.00 | 55 | 1014.9 |
| 20260905160120 | 36 | 237 | 1.6 | 4.8 | 0.00 | 0.00 | 0.00 | 58 | 1015.0 |
| 20260905155615 | 35 | 275 | 0.0 | 4.8 | 0.00 | 0.00 | 0.00 | 57 | 1014.8 |
| 20260905155114 | 34 | 230 | 4.8 | 6.4 | 0.00 | 0.00 | 0.00 | 61 | 1015.0 |
| 20260905154609 | 35 | 215 | 1.6 | 6.4 | 0.00 | 0.00 | 0.00 | 61 | 1015.1 |
| 20260905154104 | 36 | 300 | 3.2 | 3.2 | 0.00 | 0.00 | 0.00 | 58 | 1015.1 |
| 20260905153600 | 36 | 242 | 0.0 | 1.6 | 0.00 | 0.00 | 0.00 | 57 | 1015.0 |
| 20260905153054 | 35 | 237 | 1.6 | 4.8 | 0.00 | 0.00 | 0.00 | 58 | 1015.1 |
| 20260905152549 | 35 | 230 | 0.0 | 4.8 | 0.00 | 0.00 | 0.00 | 59 | 1015.3 |
| 20260905152044 | 33 | 258 | 1.6 | 4.8 | 0.00 | 0.00 | 0.00 | 60 | 1015.3 |
| 20260905151539 | 33 | 250 | 1.6 | 3.2 | 0.00 | 0.00 | 0.00 | 66 | 1015.3 |
| 20260905151034 | 33 | 330 | 0.0 | 3.2 | 0.00 | 0.00 | 0.00 | 68 | 1015.3 |
| 20260905150530 | 32 | 218 | 3.2 | 3.2 | 0.00 | 0.00 | 0.00 | 68 | 1015.3 |
| 20260905150028 | 33 | 216 | 3.2 | 4.8 | 0.00 | 0.00 | 0.00 | 68 | 1015.4 |
| 20260905145521 | 33 | 228 | 3.2 | 3.2 | 0.00 | 0.00 | 0.00 | 65 | 1015.4 |
| 20260905145021 | 34 | 244 | 0.0 | 1.6 | 0.00 | 0.00 | 0.00 | 63 | 1015.1 |
| 20260905144516 | 33 | 205 | 0.0 | 3.2 | 0.00 | 0.00 | 0.00 | 67 | 1015.3 |
| 20260905144015 | 33 | 225 | 3.2 | 3.2 | 0.00 | 0.00 | 0.00 | 68 | 1015.3 |
| 20260905143514 | 33 | 299 | 0.0 | 1.6 | 0.00 | 0.00 | 0.00 | 65 | 1015.3 |
| 20260905143009 | 32 | 251 | 3.2 | 3.2 | 0.00 | 0.00 | 0.00 | 68 | 1015.1 |
| 20260905142508 | 31 | 160 | 0.0 | 0.0 | 0.00 | 0.00 | 0.00 | 71 | 1015.1 |
| 20260905142003 | 31 | 174 | 0.0 | 3.2 | 0.00 | 0.00 | 0.00 | 71 | 1015.0 |
| 20260905141457 | 31 | 183 | 0.0 | 3.2 | 0.00 | 0.00 | 0.00 | 72 | 1015.0 |
| 20260905140954 | 32 | 201 | 0.0 | 0.0 | 0.00 | 0.00 | 0.00 | 68 | 1015.0 |
| 20260905140449 | 31 | 104 | 0.0 | 1.6 | 0.00 | 0.00 | 0.00 | 71 | 1015.3 |
| 20260905135947 | 30 | 154 | 0.0 | 3.2 | 0.00 | 0.00 | 0.00 | 75 | 1015.0 |
| 20260905135443 | 30 | 218 | 0.0 | 1.6 | 0.00 | 0.00 | 0.00 | 76 | 1015.0 |
| 20260905134939 | 28 | 169 | 1.6 | 3.2 | 0.00 | 0.00 | 0.00 | 81 | 1015.0 |
| 20260905134438 | 28 | 202 | 1.6 | 1.6 | 0.00 | 0.00 | 0.00 | 81 | 1015.1 |
| 20260905133937 | 28 | 217 | 0.0 | 1.6 | 0.00 | 0.00 | 0.00 | 82 | 1015.0 |
| 20260905133432 | 28 | 164 | 1.6 | 1.6 | 0.00 | 0.00 | 0.00 | 79 | 1015.0 |
| 20260905132932 | 28 | 162 | 1.6 | 3.2 | 0.00 | 0.00 | 0.00 | 78 | 1015.0 |
| 20260905132427 | 29 | 212 | 0.0 | 0.0 | 0.00 | 0.00 | 0.00 | 77 | 1014.9 |
| 20260905131922 | 28 | 156 | 0.0 | 3.2 | 0.00 | 0.00 | 0.00 | 80 | 1015.0 |
| 20260905131418 | 28 | 166 | 3.2 | 3.2 | 0.00 | 0.00 | 0.00 | 79 | 1015.3 |
| 20260905130912 | 28 | 150 | 0.0 | 1.6 | 0.00 | 0.00 | 0.00 | 82 | 1015.1 |
| 20260905130412 | 27 | 173 | 1.6 | 1.6 | 0.00 | 0.00 | 0.00 | 84 | 1014.9 |
| 20260905125906 | 27 | 0 | 0.0 | 1.6 | 0.00 | 0.00 | 0.00 | 86 | 1014.9 |
| 20260905125406 | 26 | 19 | 0.0 | 1.6 | 0.00 | 0.00 | 0.00 | 92 | 1015.1 |
| 20260905124902 | 25 | 180 | 0.0 | 3.2 | 0.00 | 0.00 | 0.00 | 93 | 1014.8 |
| 20260905124359 | 25 | 180 | 0.0 | 3.2 | 0.00 | 0.00 | 0.00 | 94 | 1014.8 |
| 20260905123858 | 25 | 126 | 0.0 | 1.6 | 0.00 | 0.00 | 0.00 | 95 | 1014.8 |
| 20260905123355 | 24 | 315 | 0.0 | 1.6 | 0.00 | 0.00 | 0.00 | 96 | 1014.7 |
| 20260905122851 | 24 | 180 | 1.6 | 3.2 | 0.00 | 0.00 | 0.00 | 98 | 1014.7 |
| 20260905122350 | 23 | 202 | 0.0 | 3.2 | 0.00 | 0.00 | 0.00 | 99 | 1014.6 |
| 20260905121845 | 23 | 89 | 0.0 | 1.6 | 0.00 | 0.00 | 0.00 | 99 | 1014.7 |
| 20260905121341 | 23 | 119 | 0.0 | 1.6 | 0.00 | 0.00 | 0.00 | 99 | 1014.7 |
| 20260905120840 | 23 | 113 | 0.0 | 0.0 | 0.00 | 0.00 | 0.00 | 99 | 1014.9 |
| 20260905120340 | 23 | 269 | 0.0 | 1.6 | 0.00 | 0.00 | 0.00 | 99 | 1014.8 |
| 20260905115835 | 23 | 116 | 0.0 | 1.6 | 0.00 | 0.00 | 0.00 | 99 | 1014.7 |
| 20260905115334 | 23 | 34 | 0.0 | 1.6 | 0.00 | 0.00 | 0.00 | 99 | 1014.5 |
| 20260905114829 | 23 | 154 | 0.0 | 1.6 | 0.00 | 0.00 | 0.00 | 99 | 1014.5 |
| 20260905114329 | 22 | 76 | 0.0 | 0.0 | 0.00 | 0.00 | 0.00 | 99 | 1014.2 |